sat.trackr.live / text

‹ back to catalog

ONEWEB-0269

NORAD 48987 · 2021-060W

PAYLOAD ACTIVE UNKNOWN

§ Identity

Operator
Country
UK
Launch date
2021-07-01
Launch site
VOSTO
Launch vehicle
Mass (kg)
RCS (m²)

Purposes: comms

External: N2YO · Heavens-Above · Gunter

§ Orbital elements

Epoch: 2026-09-20T02:04:16.721760Z

Period
109.37 min
Inclination
87.9154°
Eccentricity
0.0002020
Mean motion
13.16595078 rev/d
Perigee alt
1,196.2 km
Apogee alt
1,199.3 km
Semi-major
7,575.9 km
B*
1.4574e-4
RAAN
209.9379°
Arg perigee
85.6702°
Mean anomaly
274.4660°
Rev number
25,211

§ Raw data

ONEWEB-02691 48987U 21060W   26263.08630465  .00000069  00000+0  14574-3 0  99942 48987  87.9154 209.9379 0002020  85.6702 274.4660 13.16595078252118

JSON: /api/v1/satellites/48987 · /tle

For live sub-satellite position, see the globe view (requires WebGL).

§ Visibility from observer

Set your observer location to see the next 7 days of passes ≥ 10°. The values pass through the URL so the page stays shareable.

No JS? Fill the form by hand. The geolocation button needs JavaScript.